sat.trackr.live / text

‹ back to catalog

STARLINK-37200

NORAD 68339 · 2026-059U

PAYLOAD ACTIVE UNKNOWN

§ Identity

Operator
Country
US
Launch date
2026-03-22
Launch site
AFETR
Launch vehicle
Mass (kg)
RCS (m²)

Purposes: comms

External: N2YO · Heavens-Above · Gunter

§ Orbital elements

Epoch: 2026-09-20T00:07:21.021888Z

Period
93.85 min
Inclination
53.1587°
Eccentricity
0.0001210
Mean motion
15.34399469 rev/d
Perigee alt
461.9 km
Apogee alt
463.5 km
Semi-major
6,840.8 km
B*
2.6862e-4
RAAN
163.7321°
Arg perigee
98.3629°
Mean anomaly
261.7511°
Rev number
2,795

§ Raw data

STARLINK-372001 68339U 26059U   26263.00510442  .00008710  00000+0  26862-3 0  99982 68339  53.1587 163.7321 0001210  98.3629 261.7511 15.34399469 27953

JSON: /api/v1/satellites/68339 · /tle

For live sub-satellite position, see the globe view (requires WebGL).

§ Visibility from observer

Set your observer location to see the next 7 days of passes ≥ 10°. The values pass through the URL so the page stays shareable.

No JS? Fill the form by hand. The geolocation button needs JavaScript.